Location: Gisborne
(38.6530°S, 178.0040°E)
Time: 17:41:23
(UTC+13:00)

Cosmos 2181 Rocket - Pass Details

Date: 24 January 2019
Orbit: 953 x 1014 km, 82.9° (Epoch: 18 October)

Event Time Altitude Azimuth Distance (km) Brightness Sun altitude
Rises 23:25:55 0° 185° (S) 3,675 8.0 -26.2°
Reaches altitude 10° 23:28:27 10° 182° (S) 2,728 7.1 -26.5°
Maximum altitude 23:34:40 69° 98° (E) 1,042 4.0 -27.1°
Enters shadow 23:35:11 66° 67° (ENE) 1,063 3.9 -27.1°
